| time (UTC) | temp F | wind direction | speed MPH | gust MPH | rain 1hr in | rain 24hr in | rain mn in | humidity % | barometer mb |
| 20260507094504 | 30 | 312 | 0.0 | 2.0 | 0.00 | 0.25 | 0.00 | 93 | 1020.4 |
| 20260507093004 | 31 | 312 | 0.0 | 1.0 | 0.00 | 0.25 | 0.00 | 93 | 1020.7 |
| 20260507091503 | 31 | 312 | 0.0 | 1.0 | 0.00 | 0.25 | 0.00 | 93 | 1020.9 |
| 20260507090003 | 31 | 312 | 0.0 | 1.0 | 0.00 | 0.25 | 0.00 | 93 | 1020.7 |
| 20260507084602 | 31 | 312 | 0.0 | 2.0 | 0.00 | 0.27 | 0.00 | 94 | 1020.7 |
| 20260507083102 | 31 | 312 | 0.0 | 3.0 | 0.00 | 0.27 | 0.00 | 94 | 1020.7 |
| 20260507081556 | 31 | 310 | 0.0 | 1.0 | 0.00 | 0.27 | 0.00 | 93 | 1020.7 |
| 20260507080108 | 31 | 237 | 0.0 | 0.0 | 0.00 | 0.27 | 0.00 | 93 | 1020.9 |
| 20260507074554 | 31 | 237 | 0.0 | 0.0 | 0.00 | 0.28 | 0.00 | 93 | 1020.8 |
| 20260507073051 | 31 | 237 | 0.0 | 0.0 | 0.00 | 0.28 | 0.00 | 93 | 1021.0 |
| 20260507071607 | 32 | 237 | 0.0 | 1.0 | 0.00 | 0.28 | 0.00 | 93 | 1021.2 |
| 20260507070051 | 31 | 237 | 0.0 | 0.0 | 0.00 | 0.28 | 0.00 | 93 | 1021.1 |
| 20260507064549 | 32 | 237 | 0.0 | 0.0 | 0.00 | 0.28 | 0.00 | 93 | 1021.2 |
| 20260507063047 | 32 | 237 | 0.0 | 0.0 | 0.00 | 0.28 | 0.00 | 93 | 1021.4 |
| 20260507061545 | 32 | 237 | 0.0 | 0.0 | 0.00 | 0.28 | 0.00 | 93 | 1021.2 |
| 20260507060043 | 32 | 237 | 0.0 | 0.0 | 0.00 | 0.28 | 0.00 | 92 | 1021.2 |
| 20260507054541 | 32 | 237 | 0.0 | 0.0 | 0.00 | 0.28 | 0.28 | 92 | 1021.0 |
| 20260507053109 | 33 | 237 | 0.0 | 0.0 | 0.00 | 0.28 | 0.28 | 92 | 1020.9 |
| 20260507051543 | 33 | 237 | 0.0 | 0.0 | 3.14 | 0.00 | 0.28 | 92 | 1020.9 |
| 20260507050042 | 33 | 237 | 0.0 | 0.0 | 0.00 | 0.28 | 0.28 | 92 | 1021.0 |
| 20260507044537 | 34 | 237 | 0.0 | 0.0 | 0.00 | 0.28 | 0.28 | 91 | 1021.0 |
| 20260507043037 | 34 | 237 | 0.0 | 0.0 | 0.00 | 0.28 | 0.28 | 91 | 1020.9 |
| 20260507041533 | 34 | 237 | 0.0 | 0.0 | 0.00 | 0.28 | 0.28 | 91 | 1020.8 |
| 20260507040033 | 35 | 237 | 0.0 | 0.0 | 0.00 | 0.28 | 0.28 | 90 | 1020.6 |
| 20260507034537 | 35 | 237 | 0.0 | 0.0 | 0.00 | 0.31 | 0.28 | 90 | 1020.6 |
| 20260507033040 | 36 | 237 | 0.0 | 0.0 | 0.00 | 0.31 | 0.28 | 89 | 1020.6 |
| 20260507031531 | 36 | 237 | 0.0 | 0.0 | 0.00 | 0.31 | 0.28 | 88 | 1020.7 |
| 20260507030031 | 37 | 237 | 0.0 | 0.0 | 0.00 | 0.31 | 0.28 | 87 | 1020.6 |
| 20260507024533 | 38 | 237 | 0.0 | 0.0 | 0.00 | 0.33 | 0.28 | 86 | 1020.4 |
| 20260507023034 | 39 | 237 | 0.0 | 0.0 | 0.00 | 0.33 | 0.28 | 84 | 1020.3 |
| 20260507021531 | 40 | 237 | 0.0 | 0.0 | 0.00 | 0.33 | 0.28 | 83 | 1020.2 |
| 20260507020028 | 42 | 237 | 0.0 | 0.0 | 0.00 | 0.33 | 0.28 | 81 | 1020.3 |
| 20260507014528 | 43 | 237 | 0.0 | 0.0 | 0.00 | 0.36 | 0.28 | 80 | 1020.3 |
| 20260507013027 | 44 | 237 | 0.0 | 0.0 | 0.00 | 0.36 | 0.28 | 79 | 1020.3 |
| 20260507011533 | 45 | 237 | 0.0 | 0.0 | 0.00 | 0.36 | 0.28 | 78 | 1020.3 |
| 20260507010027 | 45 | 237 | 0.0 | 2.0 | 0.00 | 0.36 | 0.28 | 80 | 1020.1 |
| 20260507004535 | 45 | 238 | 0.0 | 0.0 | 0.00 | 0.41 | 0.28 | 79 | 1020.1 |
| 20260507003025 | 46 | 236 | 0.0 | 1.0 | 0.00 | 0.41 | 0.28 | 79 | 1020.1 |
| 20260507001524 | 47 | 237 | 0.0 | 1.0 | 0.00 | 0.41 | 0.28 | 77 | 1020.2 |
| 20260507000023 | 47 | 236 | 0.0 | 1.0 | 0.00 | 0.41 | 0.28 | 80 | 1020.3 |
| 20260506234519 | 45 | 236 | 0.0 | 3.0 | 0.01 | 0.43 | 0.28 | 84 | 1020.1 |
| 20260506233015 | 44 | 236 | 0.0 | 4.0 | 0.01 | 0.43 | 0.28 | 82 | 1020.1 |
| 20260506231513 | 44 | 234 | 1.0 | 4.0 | 0.01 | 0.43 | 0.28 | 87 | 1020.3 |
| 20260506230010 | 42 | 64 | 0.0 | 3.0 | 0.01 | 0.43 | 0.28 | 90 | 1020.2 |
| 20260506224510 | 41 | 63 | 1.0 | 3.0 | 0.00 | 0.42 | 0.28 | 87 | 1020.3 |
| 20260506223008 | 43 | 63 | 0.0 | 0.0 | 0.00 | 0.42 | 0.28 | 89 | 1020.2 |
| 20260506221509 | 42 | 63 | 0.0 | 1.0 | 0.00 | 0.42 | 0.28 | 90 | 1020.2 |
| 20260506220020 | 42 | 63 | 0.0 | 1.0 | 0.00 | 0.42 | 0.28 | 90 | 1020.1 |
| 20260506214507 | 42 | 63 | 0.0 | 1.0 | 0.00 | 0.42 | 0.28 | 91 | 1020.1 |
| 20260506213006 | 42 | 63 | 0.0 | 0.0 | 0.00 | 0.42 | 0.28 | 91 | 1020.4 |
| 20260506211507 | 42 | 63 | 0.0 | 1.0 | 0.00 | 0.42 | 0.28 | 90 | 1020.5 |
| 20260506210010 | 43 | 63 | 0.0 | 1.0 | 0.00 | 0.42 | 0.28 | 91 | 1020.0 |
| 20260506204504 | 43 | 63 | 0.0 | 1.0 | 0.01 | 0.42 | 0.28 | 93 | 1020.1 |
| 20260506203001 | 42 | 63 | 0.0 | 2.0 | 0.02 | 0.42 | 0.28 | 94 | 1020.5 |
| 20260506201558 | 41 | 63 | 0.0 | 2.0 | 0.03 | 0.42 | 0.28 | 95 | 1020.5 |
| 20260506200105 | 40 | 63 | 0.0 | 2.0 | 0.03 | 0.42 | 0.28 | 95 | 1020.2 |
| 20260506194602 | 39 | 63 | 0.0 | 2.0 | 0.03 | 0.41 | 0.27 | 96 | 1020.4 |
| 20260506193054 | 38 | 63 | 0.0 | 2.0 | 0.03 | 0.40 | 0.26 | 96 | 1020.4 |
| 20260506191601 | 36 | 63 | 0.0 | 3.0 | 0.03 | 0.39 | 0.25 | 95 | 1020.2 |
| 20260506190052 | 36 | 63 | 0.0 | 4.0 | 0.04 | 0.39 | 0.25 | 94 | 1020.0 |
| 20260506184551 | 36 | 62 | 0.0 | 3.0 | 0.05 | 0.38 | 0.24 | 95 | 1020.0 |
| 20260506183149 | 36 | 64 | 1.0 | 7.0 | 0.05 | 0.37 | 0.23 | 95 | 1020.1 |
| 20260506181556 | 36 | 60 | 0.0 | 3.0 | 0.05 | 0.36 | 0.22 | 95 | 1020.1 |
| 20260506180105 | 36 | 61 | 0.0 | 2.0 | 0.06 | 0.35 | 0.21 | 95 | 1020.0 |
| 20260506174547 | 36 | 61 | 0.0 | 2.0 | 0.05 | 0.33 | 0.19 | 95 | 1020.1 |
| 20260506173101 | 37 | 61 | 0.0 | 1.0 | 0.05 | 0.32 | 0.18 | 95 | 1020.1 |
| 20260506171545 | 36 | 61 | 0.0 | 3.0 | 0.06 | 0.31 | 0.17 | 95 | 1019.7 |
| 20260506170042 | 36 | 61 | 0.0 | 4.0 | 0.04 | 0.28 | 0.15 | 95 | 1019.4 |
| 20260506164538 | 36 | 96 | 1.0 | 3.0 | 0.04 | 0.28 | 0.14 | 95 | 1018.9 |
| 20260506163038 | 35 | 101 | 0.0 | 5.0 | 0.03 | 0.27 | 0.13 | 95 | 1018.7 |
| 20260506161536 | 35 | 76 | 0.0 | 4.0 | 0.01 | 0.25 | 0.11 | 95 | 1018.6 |
| 20260506160036 | 35 | 77 | 0.0 | 1.0 | 0.01 | 0.25 | 0.11 | 95 | 1018.5 |
| 20260506154532 | 34 | 78 | 0.0 | 0.0 | 0.00 | 0.24 | 0.10 | 95 | 1018.2 |
| 20260506153029 | 34 | 78 | 0.0 | 0.0 | 0.00 | 0.24 | 0.10 | 95 | 1017.9 |
| 20260506151529 | 34 | 78 | 0.0 | 0.0 | 0.00 | 0.24 | 0.10 | 95 | 1017.9 |
| 20260506150028 | 33 | 78 | 0.0 | 1.0 | 0.01 | 0.24 | 0.10 | 94 | 1017.9 |
| 20260506144526 | 33 | 78 | 0.0 | 2.0 | 0.01 | 0.24 | 0.10 | 94 | 1017.8 |
| 20260506143026 | 34 | 78 | 0.0 | 1.0 | 0.01 | 0.24 | 0.10 | 94 | 1017.6 |
| 20260506141525 | 34 | 78 | 0.0 | 2.0 | 0.01 | 0.24 | 0.10 | 94 | 1017.6 |
| 20260506140020 | 35 | 51 | 0.0 | 2.0 | 0.01 | 0.23 | 0.09 | 94 | 1017.4 |
| 20260506134516 | 36 | 51 | 0.0 | 1.0 | 0.01 | 0.23 | 0.09 | 95 | 1017.3 |
| 20260506133016 | 35 | 51 | 0.0 | 2.0 | 0.02 | 0.23 | 0.09 | 94 | 1016.9 |
| 20260506131511 | 35 | 51 | 0.0 | 4.0 | 0.02 | 0.23 | 0.09 | 94 | 1016.7 |
| 20260506130013 | 35 | 46 | 0.0 | 3.0 | 0.01 | 0.22 | 0.08 | 94 | 1016.3 |
| 20260506124507 | 35 | 38 | 0.0 | 4.0 | 0.02 | 0.22 | 0.08 | 94 | 1015.8 |
| 20260506123005 | 35 | 80 | 1.0 | 4.0 | 0.01 | 0.21 | 0.07 | 94 | 1015.7 |
| 20260506121503 | 35 | 57 | 0.0 | 3.0 | 0.02 | 0.21 | 0.07 | 94 | 1015.5 |
| 20260506120002 | 35 | 62 | 0.0 | 6.0 | 0.02 | 0.21 | 0.07 | 94 | 1015.3 |
| 20260506114603 | 35 | 65 | 0.0 | 4.0 | 0.01 | 0.20 | 0.06 | 94 | 1015.0 |
| 20260506113100 | 35 | 65 | 0.0 | 4.0 | 0.01 | 0.20 | 0.06 | 94 | 1014.6 |
| 20260506111559 | 35 | 67 | 0.0 | 4.0 | 0.00 | 0.19 | 0.05 | 94 | 1014.5 |
| 20260506110053 | 35 | 67 | 0.0 | 5.0 | 0.00 | 0.19 | 0.05 | 94 | 1014.3 |
| 20260506104557 | 36 | 67 | 1.0 | 9.0 | 0.00 | 0.19 | 0.05 | 94 | 1014.0 |
| 20260506103049 | 36 | 52 | 1.0 | 7.0 | 0.00 | 0.19 | 0.05 | 94 | 1014.0 |
| 20260506101547 | 36 | 72 | 2.0 | 11.0 | 0.00 | 0.19 | 0.05 | 94 | 1013.9 |
| 20260506100045 | 36 | 58 | 2.0 | 7.0 | 0.01 | 0.19 | 0.05 | 94 | 1013.8 |